Retour au catalogue

FREGAT DEB

LostHEO
NORAD 45882·DEBRIS·🇷🇺 Russia

Lancé Jul 18, 2011 depuis Baikonur Cosmodrome

Loading…

Prochains Passages (prochaines 24 heures)

TLE

PériméSource: Space-Track

Époque: Jun 27, 2021, 04:42 UTC

1 45882U 11037DB  21178.19614409  .00033395  00000-0  13062+0 0  9996
2 45882  52.1370 116.1252 2519605 133.8842 249.9793  9.24353934 32518

Suivez FREGAT DEB en temps réel avec AllMySat

Download on the App Store